Regional Weather Roundup
Issued by NWS

Home | Current Version | Previous Version | Text Only | Print | Product List | Glossary Off
Versions: 1 2 3 4 5 6 7 8 9 10 11 12 13 14 15 16 17 18 19 20 21 22 23 24 25 26 27 28 29 30 31 32 33 34 35 36 37 38 39 40 41 42 43 44 45 46 47 48 49 50

000
ASUS43 KDTX 201301
RWRMI
MICHIGAN HOURLY REGIONAL WEATHER ROUNDUP
NATIONAL WEATHER SERVICE DETROIT/PONTIAC MI
800 AM EST SAT DEC 20 2014

NOTE: "FAIR" INDICATES FEW OR NO CLOUDS BELOW 12,000 FEET WITH NO
SIGNIFICANT WEATHER AND/OR OBSTRUCTION TO VISIBILITY.

MIZ047>049-052>055-059>063-066>070-074>076-081>083-201400-
SOUTHEAST LOWER MICHIGAN

CITY           SKY/WX    TMP DP  RH WIND       PRES   REMARKS
ADRIAN         CLOUDY    28  23  81 E5        30.29R WCI  23
ALMA           CLOUDY    15  14  96 CALM      30.30S
ANN ARBOR      CLOUDY    27  21  78 CALM      30.28S
BAD AXE        PTCLDY    13  12  95 CALM      30.32R
CARO           PTCLDY    13  10  90 CALM      30.31R
DETROIT CITY   CLOUDY    28  20  71 CALM      30.31S
DETROIT        CLOUDY    27  21  78 N3        30.30F
FLINT          CLEAR     20  15  81 NE3       30.30S
GROSSE ILE     CLOUDY    28  23  80 CALM      30.29S
HILLSDALE      CLOUDY    28  22  81 CALM      30.25R
HOWELL         CLOUDY    23  22  93 CALM      30.27F

CITY           SKY/WX    TMP DP  RH WIND       PRES   REMARKS
JACKSON        CLOUDY    26  23  88 CALM      30.27R
LAMBERTVILLE   CLOUDY    32  21  64 CALM      30.29S
LANSING        CLOUDY    19  17  92 CALM      30.29S
LAPEER         CLOUDY    17  15  93 CALM      30.31R
MASON          CLOUDY    25  22  91 CALM      30.27F
MONROE         CLOUDY    28  21  74 CALM      30.28S
MT. CLEMENS    MOCLDY    22  22  99 CALM      30.28F
PONTIAC        CLOUDY    22  19  89 CALM      30.27S
PORT HOPE        N/A     26  20  77 SW6       30.29S WCI  19
PORT HURON     CLOUDY    21  21 100 CALM      30.31S
TRI CITIES     PTCLDY    20  15  81 CALM      30.32R
TROY           CLOUDY    26  22  82 CALM      30.31S
SAGINAW HB     PTCLDY    19  19 100 CALM      30.31S
$$
MIZ043>046-050>051-056>058-064>065-071>073-077>080-201400-
SOUTHWEST LOWER MICHIGAN

CITY           SKY/WX    TMP DP  RH WIND       PRES   REMARKS
BATTLE CREEK   MOCLDY    22  19  89 CALM      30.28R
BENTON HARBOR  CLOUDY    29  25  85 E3        30.28R
BIG RAPIDS     PTCLDY    15  14  95 CALM      30.28R
COLDWATER      CLOUDY    23  22  96 MISG      30.28R FOG
FREMONT        FAIR      19  18  95 E3        30.28S
HOLLAND        PTCLDY    21  17  84 SE3       30.29R
GRAND RAPIDS   MOCLDY    19  15  84 CALM      30.28R
IONIA          FAIR      17  16  95 E3        30.28S
KALAMAZOO      PTCLDY    18  14  84 CALM      30.29R FOG
LUDINGTON      CLOUDY    23  21  91 E3        30.29S
MARSHALL       CLOUDY    24  23  95 CALM      30.27R
MOUNT PLEASANT CLEAR     15  13  93 CALM      30.29S
MUSKEGON       CLOUDY    22  18  85 CALM      30.29S
SOUTH HAVEN    CLOUDY    26  22  86 E3        30.28S
$$
MIZ016>042-201400-
NORTHERN LOWER MICHIGAN

CITY           SKY/WX    TMP DP  RH WIND       PRES   REMARKS
ALPENA         PTCLDY     8   5  87 CALM      30.32R
BEAVER ISLAND  CLOUDY    24  23  96 CALM      30.28S
BELLAIRE       CLOUDY    25  21  82 CALM      30.30S
CADILLAC       CLOUDY    16  13  90 CALM      30.24S
CHARLEVOIX     CLOUDY    25  21  86 SE6       30.32S WCI  18
FRANKFORT      CLOUDY    27  23  85 CALM      30.28S
GAYLORD        CLOUDY    19  17  92 CALM      30.25S
GRAYLING       CLOUDY    16  14  93 CALM      30.28S
HARBOR SPRINGS CLOUDY    17  14  90 NE5       30.29S WCI  10
HOUGHTON LAKE  CLOUDY    12   9  87 CALM      30.28R
MANISTEE       MOCLDY    19  16  86 SE5       30.29S WCI  13
OSCODA         PTCLDY     7   4  89 CALM      30.31R
PELLSTON       CLOUDY     7   3  84 CALM      30.30S
ROGERS CITY    PTCLDY    14  13  97 SW3       30.32R
TRAVERSE CITY  CLOUDY    26  19  74 CALM      30.28F
$$
MIZ007>008-015-201400-
EASTERN UPPER MICHIGAN

CITY           SKY/WX    TMP DP  RH WIND       PRES   REMARKS
KINROSS        MOCLDY    10  10 100 E5        30.29F WCI   2
MACKINAC ISLAN CLOUDY    17  17  98 E3        30.29S
NEWBERRY       CLOUDY    23  20  88 CALM      30.27S
S. S. MARIE    MOCLDY    10   6  84 CALM      30.32F
MUNISING         N/A     14  10  84 SW3       30.26S
$$
MIZ004>006-011>014-085-201400-
CENTRAL UPPER MICHIGAN

CITY           SKY/WX    TMP DP  RH WIND       PRES   REMARKS
MANISTIQUE     CLEAR     16  15  96 CALM      30.27S
ESCANABA       PTCLDY     9   3  78 CALM      30.26S
MENOMINEE      MOCLDY    14  10  85 CALM      30.27S
SAWYER-GWINN   CLOUDY    10   7  85 CALM      30.21S
$$
MIZ001>003-009>011-084-201400-
WESTERN UPPER MICHIGAN

CITY           SKY/WX    TMP DP  RH WIND       PRES   REMARKS
IRON MOUNTAIN  CLOUDY    17  14  88 CALM      30.22R
HOUGHTON       CLOUDY    12   9  87 CALM      30.18S
COPPER HARBOR    N/A     22  18  85 CALM      30.22R
IRONWOOD       CLOUDY    25  21  86 S5        30.14F WCI  19
$$

ABBREVIATIONS USED IN REMARKS
   TC - TEMPERATURE IN CELSIUS
  WCI - WIND CHILL INDEX
   HX - HEAT INDEX
  VSB - VISIBILITY



USA.gov is the U.S. government's official web portal to all federal, state and local government web resources and services.